Location: Sternwarte ZA, Rosenfeld-Brittheim
(48.2889°N, 8.6789°E)
Time: 16:16:07
(UTC+02:00)

ISS - Visible Passes

Search period start: 25 May 2017 00:00
Search period end: 04 June 2017 00:00
Orbit: 402 x 409 km, 51.6° (Epoch: 25 May)

Date Brightness Start Highest point End Pass type
(mag) Time Alt. Az. Time Alt. Az. Time Alt. Az.
25 May -2.7 01:05:51 10° W 01:09:03 45° N 01:12:15 10° ENE visible
25 May -3.4 02:42:35 10° WNW 02:45:51 62° NNE 02:49:07 10° E visible
25 May -3.2 04:19:14 10° W 04:22:15 34° SW 04:25:15 10° SSE visible
25 May -3.7 22:37:10 10° SW 22:40:23 53° SSE 22:43:36 10° ENE visible
26 May -2.9 00:13:42 10° W 00:16:56 51° N 00:20:10 10° ENE visible
26 May -2.9 01:50:31 10° WNW 01:53:45 50° N 01:56:58 10° E visible
26 May -3.8 03:27:05 10° WNW 03:30:19 55° SSW 03:33:31 10° SE visible
26 May -3.4 23:21:32 10° W 23:24:49 64° NNW 23:28:06 10° ENE visible
27 May -2.7 00:58:25 10° WNW 01:01:37 45° N 01:04:48 10° ENE visible
27 May -4.0 02:35:01 10° WNW 02:38:18 85° SSW 02:41:36 10° ESE visible
27 May -2.3 04:12:07 10° W 04:14:25 18° SW 04:16:42 10° S visible
27 May -3.8 22:29:26 10° WSW 22:32:44 87° NNW 22:36:02 10° ENE visible
28 May -2.6 00:06:16 10° WNW 00:09:27 44° N 00:12:38 10° ENE visible
28 May -3.6 01:42:57 10° WNW 01:46:14 69° NNE 01:47:25 36° E visible
28 May -1.4 03:19:39 10° W 03:19:57 12° W 03:19:57 12° W visible
28 May -2.8 23:14:04 10° W 23:17:18 48° N 23:20:30 10° ENE visible
29 May -3.1 00:50:51 10° WNW 00:54:06 54° NNE 00:56:00 22° E visible
29 May -1.9 02:27:26 10° WNW 02:28:36 19° W 02:28:36 19° W visible
29 May -3.1 22:21:52 10° W 22:25:07 58° NNW 22:28:24 10° ENE visible
29 May -2.8 23:58:44 10° WNW 00:01:56 46° N 00:05:06 10° E visible
30 May -3.2 01:35:17 10° WNW 01:37:43 45° W 01:37:43 45° W visible
30 May -2.6 23:06:34 10° WNW 23:09:44 44° N 23:12:56 10° ENE visible
31 May -3.8 00:43:11 10° WNW 00:46:30 78° NNE 00:47:00 59° E visible
31 May -2.7 22:14:20 10° W 22:17:32 46° N 22:20:44 10° ENE visible
31 May -3.3 23:51:04 10° WNW 23:54:21 58° NNE 23:56:23 20° E visible
01 Jun -1.9 01:27:40 10° WNW 01:29:01 21° W 01:29:01 21° W visible
01 Jun -2.9 22:58:55 10° WNW 23:02:09 48° N 23:05:21 10° E visible
02 Jun -3.7 00:35:28 10° WNW 00:38:28 59° WSW 00:38:28 59° WSW visible
02 Jun -2.7 22:06:43 10° WNW 22:09:54 44° N 22:13:06 10° ENE visible
02 Jun -3.9 23:43:19 10° WNW 23:46:38 88° NNE 23:47:56 34° ESE visible
03 Jun -1.2 01:20:17 10° W 01:20:35 11° W 01:20:35 11° W visible
03 Jun -3.4 22:51:10 10° WNW 22:54:27 64° NNE 22:57:28 12° E visible
